• MPC Preparation (Info)

  • MPEC 2016-Y28 : 2016 YQ

    The following Minor Planet Electronic Circular may be linked-to from your own Web pages, but must not otherwise be redistributed electronically.

    A form allowing access to any MPEC is at the bottom of this page.


    Read MPEC 2016-Y27 Read MPEC 2016-Y29


    M.P.E.C. 2016-Y28                                Issued 2016 Dec. 21, 02:11 UT
    
         The Minor Planet Electronic Circulars contain information on unusual
             minor planets and routine data on comets.  They are published
        on behalf of Division F of the International Astronomical Union by the
              Minor Planet Center, Smithsonian Astrophysical Observatory,
                              Cambridge, MA 02138, U.S.A.
    
                 Prepared using the Tamkin Foundation Computer Network
    
                                  MPC@CFA.HARVARD.EDU
                URL https://www.minorplanetcenter.net/    ISSN 1523-6714
    
                                        2016 YQ
    
    Observations:
         K16Y00Q* C2016 12 19.16904 02 22 44.22 +28 16 05.2          18.1 VqEY028G96
         K16Y00Q  C2016 12 19.17337 02 22 44.18 +28 14 44.1          19.1 VqEY028G96
         K16Y00Q  C2016 12 19.17765 02 22 44.12 +28 13 24.8          19.1 VqEY028G96
         K16Y00Q  C2016 12 19.18193 02 22 44.02 +28 12 04.8          19.1 VqEY028G96
         K16Y00Q  C2016 12 19.19922 02 22 43.77 +28 06 40.4          18.9 VqEY028I52
         K16Y00Q  C2016 12 19.19954 02 22 43.72 +28 06 34.8          19.2 VqEY028I52
         K16Y00Q  C2016 12 19.19985 02 22 43.74 +28 06 28.9          19.2 VqEY028I52
         K16Y00Q  C2016 12 19.20017 02 22 43.73 +28 06 22.9          19.2 VqEY028I52
         K16Y00Q  C2016 12 19.21148 02 22 43.58 +28 02 50.8          19.3 VqEY028G96
         K16Y00Q  C2016 12 19.21172 02 22 43.53 +28 02 45.4          19.1 VqEY028G96
         K16Y00Q  C2016 12 19.21196 02 22 43.60 +28 02 40.8          19.1 VqEY028G96
         K16Y00Q  C2016 12 19.21220 02 22 43.58 +28 02 37.3          19.2 VqEY028G96
         K16Y00Q KC2016 12 19.22552302 22 39.30 +27 57 36.7          19.5 VuEY028H21
         K16Y00Q KC2016 12 19.22767302 22 39.33 +27 56 55.6          19.4 VuEY028H21
         K16Y00Q KC2016 12 19.22981502 22 39.37 +27 56 14.5          19.2 VuEY028H21
         K16Y00Q KC2016 12 19.23202002 22 39.41 +27 55 32.4          19.4 VuEY028H21
         K16Y00Q  C2016 12 19.23224402 22 42.61 +27 56 08.4          18.8 GUEY028H01
         K16Y00Q  C2016 12 19.23757002 22 42.59 +27 54 27.4          18.7 GUEY028H01
         K16Y00Q  C2016 12 19.24519402 22 42.58 +27 52 02.4          19.1 GUEY028H01
         K16Y00Q  C2016 12 19.25291902 22 42.59 +27 49 34.8          18.9 GUEY028H01
         K16Y00Q  C2016 12 19.31117 02 22 43.81 +27 31 04.9          19.6 VqEY028G96
         K16Y00Q  C2016 12 19.31165 02 22 43.80 +27 30 55.7          19.6 VqEY028G96
         K16Y00Q  C2016 12 19.31189 02 22 43.81 +27 30 51.8          18.9 VqEY028G96
         K16Y00Q KC2016 12 19.76101 02 23 35.93 +25 06 02.0          18.3 RoEY028K88
         K16Y00Q KC2016 12 19.76609 02 23 36.00 +25 04 22.4          18.9 RoEY028K88
         K16Y00Q  C2016 12 20.03724202 24 06.36 +23 34 40.9          18.6 GUEY028H01
         K16Y00Q  C2016 12 20.04528002 24 06.43 +23 32 00.9          18.9 GUEY028H01
         K16Y00Q  C2016 12 20.05092902 24 06.49 +23 30 08.4          19.3 GUEY028H01
         K16Y00Q  C2016 12 20.05916702 24 06.53 +23 27 23.7          19.0 GUEY028H01
         K16Y00Q  C2016 12 20.13198 02 24 07.25 +23 03 01.5          18.9 VqEY028G96
         K16Y00Q  C2016 12 20.13239 02 24 07.23 +23 02 52.7          19.0 VqEY028G96
         K16Y00Q  C2016 12 20.13280 02 24 07.23 +23 02 44.6          18.9 VqEY028G96
         K16Y00Q  C2016 12 20.13321 02 24 07.23 +23 02 35.1          19.0 VqEY028G96
         K16Y00Q  C2016 12 20.44960 02 24 35.06 +21 13 12.2          19.0 RoEY028300
         K16Y00Q  C2016 12 20.45196 02 24 35.14 +21 12 21.3          19.4 RoEY028300
         K16Y00Q  C2016 12 20.45434 02 24 35.08 +21 11 32.0          19.5 RoEY028300
         K16Y00Q KC2016 12 20.72672 02 25 02.97 +19 33 48.0          19.7 RqEY028113
         K16Y00Q KC2016 12 20.72934 02 25 02.99 +19 32 51.8          19.4 RqEY028113
         K16Y00Q KC2016 12 20.73119 02 25 05.20 +19 32 01.4                qEY028J95
         K16Y00Q KC2016 12 20.73194 02 25 03.04 +19 31 55.7          18.9 RqEY028113
         K16Y00Q KC2016 12 20.73455 02 25 03.16 +19 31 00.0          19.0 RqEY028113
         K16Y00Q KC2016 12 20.74306 02 25 05.65 +19 27 49.3                qEY028J95
         K16Y00Q KC2016 12 20.74843 02 25 05.86 +19 25 55.1          19.1 RqEY028J95
         K16Y00Q KC2016 12 20.77439 02 25 02.71 +19 17 00.6          18.8 RoEY028K88
         K16Y00Q KC2016 12 20.77692 02 25 02.76 +19 16 06.3          19.1 RoEY028K88
         K16Y00Q KC2016 12 20.77944 02 25 02.77 +19 15 11.6          19.2 RoEY028K88
         K16Y00Q KC2016 12 20.81925 02 25 04.66 +19 00 58.9                SEY028595
         K16Y00Q KC2016 12 20.82608 02 25 04.71 +18 58 31.1          18.7 VSEY028595
         K16Y00Q KC2016 12 20.83288 02 25 04.78 +18 56 03.6                SEY028595
         K16Y00Q KC2016 12 20.84657 02 25 04.95 +18 51 05.2          18.8 VSEY028595
         K16Y00Q KC2016 12 21.02265 02 25 31.62 +17 47 17.6          18.9 RqEY028H36
         K16Y00Q KC2016 12 21.03220 02 25 31.78 +17 43 50.2          18.9 RqEY028H36
         K16Y00Q KC2016 12 21.04173 02 25 31.92 +17 40 22.1          19.4 RqEY028H36
    
    Observer details:
    113 Volkssternwarte Drebach, Schoenbrunn.  Observer G. Lehmann.  0.5-m f/4.6
        reflector + CCD.
    300 Bisei Spaceguard Center--BATTeRS.  Observers K. Nishiyama, S. Okumura.
        1.0-m f/3.0 reflector + CCD.
    595 Farra d'Isonzo.  Observer E. Pettarin.  0.61-m f/4.0 reflector + CCD.
    G96 Mt. Lemmon Survey.  Observers G. J. Leonard, D. C. Fuls.  Measurers
        E. J. Christensen, D. C. Fuls, A. R. Gibbs, A. D. Grauer, J. A. Johnson,
        R. A. Kowalski, S. M. Larson, G. J. Leonard, R. G. Matheny, R. L. Seaman,
        F. C. Shelly.  1.5-m reflector + 10K CCD.
    H01 Magdalena Ridge Observatory, Socorro.  Observers W. H. Ryan, E. V. Ryan.
        Measurer W. H. Ryan.  2.4-m f/8.9 reflector + CCD.
    H21 Astronomical Research Observatory, Westfield.  Observer R. Holmes.
        Measurers S. Foglia, L. Buzzi, T. Linder, R. Holmes.  0.61-m f/4.5
        astrograph + CCD.
    H36 Sandlot Observatory, Scranton.  Observer G. Hug.  0.56-m reflector + CCD.
    I52 Steward Observatory, Mt. Lemmon Station.  Observer J. A. Johnson.
        Measurers E. J. Christensen, D. C. Fuls, A. R. Gibbs, A. D. Grauer,
        J. A. Johnson, R. A. Kowalski, S. M. Larson, G. J. Leonard, R. G. Matheny,
        R. L. Seaman, F. C. Shelly.  1.0-m reflector + CCD.
    J95 Great Shefford.  Observer P. Birtwhistle.  0.40-m f/6.0 Schmidt-Cassegrain
        + CCD.
    K88 GINOP-KHK, Piszkesteto.  Observer L. Kriskovics.  Measurer K. Sarneczky.
        0.60-m Schmidt + CCD.
    
    Orbital elements:
    2016 YQ                                                  Earth MOID = 0.0190 AU
    Epoch 2017 Feb. 16.0 TT = JDT 2457800.5                 MPC
    M   9.47717              (2000.0)            P               Q
    n   0.81588131     Peri.  229.05113     -0.72207584     -0.66400280
    a   1.1342742      Node   268.37946     +0.67865082     -0.62536826
    e   0.1551433      Incl.   11.20150     +0.13431135     -0.40989611
    P   1.21           H   24.7           G   0.15           U   6
    Residuals in seconds of arc
    161219 G96  0.4-  0.5+    161219 H01  0.1+  0.2+    161220 113  0.9+  0.2-
    161219 G96  0.1+  0.0     161219 H01  0.1+  0.1-    161220 113  0.2+  0.6-
    161219 G96  0.3+  0.4+    161219 G96  0.6+  0.9-    161220 J95  0.2-  0.2-
    161219 G96  0.0   0.3+    161219 G96  0.3+  0.9-    161220 113  0.1-  1.2-
    161219 I52  0.4+  0.3-    161219 G96  0.4+  0.1-    161220 113  0.7+  1.3-
    161219 I52  0.2-  0.1+    161219 K88  0.3+  0.2+    161220 J95  0.0   0.3+
    161219 I52  0.1+  0.1+    161219 K88  0.7+  0.4+    161220 J95  0.4+  0.5+
    161219 I52  0.1+  0.1+    161220 H01  0.6+  0.3-    161220 K88  0.0   0.4+
    161219 G96  0.2+  0.7+    161220 H01  0.3+  0.2-    161220 K88  0.3+  0.5+
    161219 G96  0.4-  0.1-    161220 H01  0.4+  0.0     161220 K88  0.0   0.1+
    161219 G96  0.6+  0.2-    161220 H01  0.3+  0.2-    161220 595  0.4+  0.2-
    161219 G96  0.3+  0.8+    161220 G96  0.3+  0.8+    161220 595  0.2+  0.1+
    161219 H21  0.3+  0.2+    161220 G96  0.1+  0.4+    161220 595  0.2+  0.3+
    161219 H21  0.2+  0.2+    161220 G96  0.2+  0.6+    161220 595  0.5+  0.3-
    161219 H21  0.2+  0.0     161220 G96  0.2+  0.6-    161221 H36  0.1-  0.5-
    161219 H21  0.1+  0.0     161220 300  0.1-  1.0+    161221 H36  0.1+  0.2+
    161219 H01  0.2+  0.1-    161220 300  1.2+  0.6-    161221 H36  0.4+  0.1+
    161219 H01  0.1+  0.1+    161220 300  0.6+  0.1-
    
    Ephemeris:
    2016 YQ                  a,e,i = 1.13, 0.16, 11                  q = 0.9583
    Date    TT    R. A. (2000) Decl.     Delta      r     Elong.  Phase     V
    2016 11 21    02 41 02.2 +71 05 04   0.1309  1.0733   127.9    46.6    22.2
    ...
    2016 12 06    02 17 19.9 +62 50 32   0.07556 1.0375   132.1    44.8    20.9
    ...
    2016 12 14    02 17 34.8 +48 19 49   0.04932 1.0199   135.3    42.8    19.9
    ...
    2016 12 20    02 23 53.1 +23 48 34   0.03492 1.0077   132.5    46.1    19.2
    2016 12 21    02 25 21.4 +17 57 36   0.03346 1.0058   130.5    48.1    19.1
    2016 12 22    02 26 56.2 +11 39 20   0.03238 1.0039   127.8    50.7    19.1
    ...
    2016 12 28    02 38 25.0 -27 14 28   0.03492 0.9930   105.0    73.0    20.0
    ...
    2017 01 05    02 57 32.8 -56 34 53   0.05449 0.9805    85.5    91.3    21.6
    ...
    2017 01 20    03 32 35.5 -74 52 57   0.1017  0.9642    75.8    98.3    23.2
    
    A. U. Tomatic                (C) Copyright 2016 MPC           M.P.E.C. 2016-Y28
    

    Read MPEC 2016-Y27 Read MPEC 2016-Y29


    MPEC number:

    Enter an MPEC number in one of the following forms:

    • 1997-B01 (the full form)
    • J97B01 (the packed version of the full form)
    • B01 (the abbreviated form)